Overview Statistics Trail Chart Weather Telemetry Raw packets
 

This is the latest recevied weather packets stored in our database for station/object KQ4LLM. If no packets are shown the sender has not sent any weather packets the latest 10 day(s).

<< 32 33 34 35 36 37 38 >>
Time Temp. Humidity Pressure Rain* Wind** Luminosity Snow
1788466951 33.89° C 53% - 0 mm - - -
1788466650 34.44° C 51% - 0 mm - - -
1788466346 34.44° C 50% - 0 mm - - -
1788466045 34.44° C 49% - 0 mm - - -
1788465741 35° C 48% - 0 mm - - -
1788465436 36.67° C 45% - 0 mm - - -
1788465132 36.11° C 44% - 0 mm - - -
1788464527 36.11° C 45% - 0 mm - - -
1788464222 35.56° C 46% - 0 mm - - -
1788463917 35.56° C 46% - 0 mm - - -
1788463614 35.56° C 46% - 0 mm - - -
1788463309 35.56° C 47% - 0 mm - - -
1788463005 35.56° C 46% - 0 mm - - -
1788462705 35° C 48% - 0 mm - - -
1788462405 35° C 49% - 0 mm - - -
1788462099 35.56° C 48% - 0 mm - - -
1788461795 35° C 49% - 0 mm - - -
1788461490 35.56° C 49% - 0 mm - - -
1788461186 34.44° C 51% - 0 mm - - -
1788460882 33.89° C 52% - 0 mm - - -
1788460580 33.89° C 53% - 0 mm - - -
1788460276 34.44° C 52% - 0 mm - - -
1788459975 34.44° C 52% - 0 mm - - -
1788459670 35° C 52% - 0 mm - - -
1788459390 35° C 52% - 0 mm - - -

* Rain latest hour (hover to see other rain measurements)
** Current wind speed in m/s (hover to see current wind gust speed)